Notices

What's New in latest Release from April 7th, 2021:

- Updated Glossary, including Speed of Maximum Gust, and Total Hourly Precipitation

- Updated national and regional climate services offices contacts and prices information

- Addition of station inventory lists for 1981-2010, 1971-2000, and 1961-1990 Normals.

If you haven't already, please take our survey and provide feedback about our website: https://eccc.sondage-survey.ca/f/LanguageSelection.aspx?s=442ca660-fcf1-47c0-95a9-59707d6fd709

Hourly Data Report for June 05, 2020

TRENTON A
ONTARIO
Current Station Operator: DND

44°07'00.000" N
77°32'00.000" W
86.30 m
6158875
71621
YTR

Download Data

Hourly Data (June 2020)
Hourly Data Report for June 5, 2020
TIME
LST
Temp Definition
°C
Dew Point Definition
°C
Rel Hum Definition
%
Precip. Amount Definition
mm

Wind Dir Definition
10's deg

Wind Spd Definition
km/h
Visibility Definition
km
Stn Press Definition
kPa
Hmdx Definition


Wind Chill Definition


Weather Definition


00:00 17.5 15.3 87   19 8 24.1 99.87     Cloudy
01:00 17.4 14.8 85   23 5 24.1 99.85     Cloudy
02:00 16.0 15.1 94   19 4 16.1 99.84     Mostly Cloudy
03:00 16.5 15.0 91   23 11 16.1 99.89     Mainly Clear
04:00 15.5 14.7 95   21 5 12.9 99.93     Mainly Clear
05:00 15.5 14.8 96   23 5 16.1 99.96     Mainly Clear
06:00 16.8 15.7 93   30 5 19.3 99.99     Mainly Clear
07:00 19.0 15.9 82     0 24.1 99.99     Mainly Clear
08:00 21.1 16.7 76   19 4 24.1 100.00 26   Mainly Clear
09:00 22.3 17.5 74   22 9 24.1 100.01 28   Mainly Clear
10:00 23.2 17.0 68   23 9 24.1 100.01 28   Mainly Clear
11:00 24.4 16.3 61   21 9 24.1 100.01 29   Mainly Clear
12:00 26.0 16.5 56   21 11 24.1 99.98 31   Mainly Clear
13:00 24.8 17.2 63   22 15 24.1 99.93 30   Mostly Cloudy
14:00 25.5 18.9 67   19 18 24.1 99.90 32   Mainly Clear
15:00 25.7 18.6 65   21 13 24.1 99.85 32   Mainly Clear
16:00 25.3 17.6 62   21 17 24.1 99.79 31   Mostly Cloudy
17:00 26.5 17.4 57   21 17 24.1 99.77 32   Cloudy
18:00 21.3 18.2 83   20 13 19.3 99.78 27   Mostly Cloudy
19:00 20.5 18.1 86   21 9 16.1 99.78 27   Mostly Cloudy
20:00 19.8 18.6 93   22 5 16.1 99.82     Rain Showers
21:00 19.5 14.8 74   21 13 6.4 99.89     Thunderstorms,Rain Showers,Fog
22:00 19.0 18.3 96     0 9.7 99.79     Fog
23:00 19.1 18.3 95   19 5 6.4 99.75     Fog

Notes on Data Quality.

Legend

  • E = Estimated
  • M = Missing
  • NA = Not Available*
  • [empty] = Indicates an unobserved value
Date modified: